Voltar ao catálogo

STARLINK-37011

AtivoComunicaçõesSSO
NORAD 68217·PAYLOAD·🇺🇸 United States

Lançado Mar 17, 2026 de Vandenberg Space Force Base

Loading…

Próximas Passagens (próximas 24 horas)

TLE

AtualizadoSource: CelesTrak SupGP

Época: Sep 15, 2026, 04:12 UTC

1 68217C 26053L   26258.17548611 -.00003828  00000+0 -11880-3 0  2587
2 68217  97.2845 132.0127 0001919  96.5970   2.2167 15.33449163    11

Acompanhe STARLINK-37011 em tempo real com AllMySat

Download on the App Store